Location: Newark
(43.0000°N, 1.6781°W)
Time: 08:57:07
(UTC+00:00)

Transit 2A - Visible Passes

Search period start: 07 October 2022 00:00
Search period end: 17 October 2022 00:00
Orbit: 601 x 956 km, 66.7° (Epoch: 06 October)

Date Brightness Start Highest point End Pass type
(mag) Time Alt. Az. Time Alt. Az. Time Alt. Az.
07 Oct 8.3 05:20:07 10° N 05:23:18 18° NE 05:26:38 10° E visible
08 Oct 8.5 04:46:26 10° N 04:48:38 13° NE 04:50:55 10° ENE visible
10 Oct 7.5 05:19:16 10° NNW 05:23:37 35° NE 05:28:21 10° ESE visible
11 Oct 8.0 04:45:09 10° N 04:49:06 25° NE 04:53:19 10° ESE visible
12 Oct 8.4 04:11:10 10° N 04:14:31 19° NE 04:18:03 10° E visible
13 Oct 8.6 03:37:23 10° N 03:39:52 14° NE 03:42:26 10° ENE visible
13 Oct 6.1 05:18:52 10° NNW 05:23:41 78° ENE 05:29:01 10° SE visible
14 Oct 8.8 03:04:30 10° NNE 03:05:09 10° NE 03:05:48 10° NE visible
14 Oct 6.6 04:44:34 10° NNW 04:49:16 53° NE 04:54:27 10° SE visible
15 Oct 7.3 04:10:21 10° NNW 04:14:49 37° NE 04:19:40 10° ESE visible
15 Oct 7.7 18:52:50 10° SSE 18:53:13 12° SSE 18:53:13 12° SSE visible
16 Oct 7.8 03:37:22 16° N 03:40:18 27° NE 03:44:41 10° ESE visible
16 Oct 6.2 05:18:54 10° NW 05:23:34 46° WSW 05:28:42 10° S visible
16 Oct 7.4 18:19:55 10° SE 18:21:05 12° ESE 18:21:05 12° ESE visible
16 Oct 7.5 20:00:05 10° SW 20:01:39 21° SW 20:01:39 21° SW visible
